Weather History for St. Johnsbury, VT

Change the Weather History Date:

Sunday, February 17, 2013

  Actual Average Record
Temperature  
Mean Temperature 14 °F 20 °F  
Max Temperature 18 °F 32 °F 57 °F (1981)
Min Temperature 9 °F 8 °F -30 °F (1934)
Degree Days  
Heating Degree Days 51 45  
Month to date heating degree days 782 798  
Since 1 July heating degree days 5070 5247  
Moisture  
Dew Point 1 °F    
Average Humidity 60    
Maximum Humidity 70    
Minimum Humidity 49    
Precipitation  
Precipitation 0.00 in 0.07 in 1.18 in (1954)
Month to date precipitation 0.74 1.36  
Year to date precipitation 2.74 3.87  
Sea Level Pressure  
Sea Level Pressure 29.71 in    
Wind  
Wind Speed - (North)    
Max Wind Speed -    
Max Gust Speed -    
T = Trace of Precipitation, MM = Missing Value Source: NWS Daily Summary

Daily Weather History Graph

Daily Weather History Graph

Search for Another Location

Airport:

Trip Planner

Search our weather history database for the weather conditions in past years. The results will help you decide how hot, cold, wet, or windy it might be!

Date:

Astronomy

Feb. 17, 2013 Rise Set
Actual Time 6:44 AM EST 5:20 PM EST
Civil Twilight 6:14 AM EST 5:49 PM EST
Nautical Twilight 5:40 AM EST 6:23 PM EST
Astronomical Twilight 5:07 AM EST 6:57 PM EST
Moon 10:17 AM EST 12:30 AM EST
Length of Visible Light 11h 35m
Length of Day
10h 35m
Waxing Crescent, 49% of the Moon is Illuminated
Feb 17
Waxing Crescent
Feb 17
First Quarter
Feb 25
Full
Mar 4
Last Quarter
Mar 11
New

Hourly Weather History & Observations

Time (EST) Temp. Dew Point Humidity Pressure Visibility Wind Dir Wind Speed Gust Speed Precip Events Conditions
12:54 AM 17.1 °F 3.9 °F 56% 29.86 in - North - - N/A   Unknown
1:54 AM 16.0 °F 3.9 °F 59% 29.82 in - North - - N/A   Unknown
2:54 AM 16.0 °F 5.0 °F 62% 29.82 in - North - - N/A   Unknown
3:54 AM 14.0 °F 3.9 °F 64% 29.80 in - North - - N/A   Unknown
4:54 AM 14.0 °F 3.9 °F 64% 29.78 in - North - - N/A   Unknown
5:54 AM 12.9 °F 3.9 °F 67% 29.75 in - North - - N/A   Unknown
6:54 AM 12.9 °F 5.0 °F 71% 29.75 in - North - - N/A   Unknown
7:54 AM 12.0 °F 3.9 °F 70% 29.72 in - North - - N/A   Unknown
8:54 AM 12.0 °F 3.0 °F 67% 29.69 in - North - - N/A   Unknown
9:54 AM 12.9 °F 1.0 °F 59% 29.67 in - North - - N/A   Unknown
10:54 AM 14.0 °F -0.0 °F 54% 29.64 in - North - - N/A   Unknown
11:54 AM 15.1 °F -0.0 °F 51% 29.62 in - North - - N/A   Unknown
12:54 PM 15.1 °F -0.0 °F 51% 29.61 in - North - - N/A   Unknown
1:54 PM 14.0 °F -0.0 °F 54% 29.60 in - North - - N/A   Unknown
2:54 PM 12.9 °F -0.9 °F 54% 29.60 in - North - - N/A   Unknown
3:54 PM 12.9 °F -0.9 °F 54% 29.60 in - North - - N/A   Unknown
4:54 PM 12.0 °F -0.0 °F 59% 29.63 in - North - - N/A   Unknown
5:54 PM 12.0 °F -0.0 °F 59% 29.66 in - North - - N/A   Unknown
6:54 PM 10.9 °F -0.0 °F 61% 29.68 in - North - - N/A   Unknown
7:54 PM 10.9 °F -0.0 °F 61% 29.69 in - North - - N/A   Unknown
8:54 PM 10.9 °F -0.0 °F 61% 29.71 in - North - - N/A   Unknown
9:54 PM 10.0 °F -0.0 °F 64% 29.73 in - North - - N/A   Unknown
10:54 PM 9.0 °F -0.9 °F 64% 29.75 in - North - - N/A   Unknown
11:54 PM 9.0 °F -0.9 °F 64% 29.78 in - North - - N/A   Unknown